sat.trackr.live / text

‹ back to catalog

STARLINK-2407

NORAD 47822 · 2021-018AM

PAYLOAD ACTIVE UNKNOWN

§ Identity

Operator
Country
US
Launch date
2021-03-11
Launch site
AFETR
Launch vehicle
Mass (kg)
RCS (m²)

Purposes: comms

External: N2YO · Heavens-Above · Gunter

§ Orbital elements

Epoch: 2026-09-19T21:22:08.277312Z

Period
94.01 min
Inclination
53.1578°
Eccentricity
0.0001192
Mean motion
15.31708198 rev/d
Perigee alt
469.9 km
Apogee alt
471.5 km
Semi-major
6,848.9 km
B*
1.0849e-4
RAAN
71.5143°
Arg perigee
91.1153°
Mean anomaly
268.9985°
Rev number
30,631

§ Raw data

STARLINK-24071 47822U 21018AM  26262.89037358  .00003004  00000+0  10849-3 0  99972 47822  53.1578  71.5143 0001192  91.1153 268.9985 15.31708198306311

JSON: /api/v1/satellites/47822 · /tle

For live sub-satellite position, see the globe view (requires WebGL).

§ Visibility from observer

Set your observer location to see the next 7 days of passes ≥ 10°. The values pass through the URL so the page stays shareable.

No JS? Fill the form by hand. The geolocation button needs JavaScript.